iso_date,epoch_date,Year,Hour,Min,DOY,POS_DOY,Lat,Lon,BP,Ts,Ta,has_bp,has_ts,has_ta,BuoyID,Buoy_Type,Buoy_Owner,Logistics,Hemisphere
2021-07-06T18:00:00Z,1625594400,2021,18,0,187.75,187.75,61.964,-14.27,1006.7,12.06,-999.0,yes,yes,no,300234066214700,BD2VHI,AOML,UNKNOWN,North
2021-07-06T21:00:00Z,1625605200,2021,21,0,187.875,187.875,61.952,-14.229,1007.2,11.98,-999.0,yes,yes,no,300234066214700,BD2VHI,AOML,UNKNOWN,North
2021-07-07T00:00:00Z,1625616000,2021,0,0,188.0,188.0,61.943,-14.236,1007.8,11.89,-999.0,yes,yes,no,300234066214700,BD2VHI,AOML,UNKNOWN,North
2021-07-07T03:00:00Z,1625626800,2021,3,0,188.125,188.125,61.943,-14.236,1008.1,11.81,-999.0,yes,yes,no,300234066214700,BD2VHI,AOML,UNKNOWN,North
2021-07-07T06:00:00Z,1625637600,2021,6,0,188.25,188.25,61.949,-14.209,1008.6,11.71,-999.0,yes,yes,no,300234066214700,BD2VHI,AOML,UNKNOWN,North
2021-07-07T09:00:00Z,1625648400,2021,9,0,188.375,188.375,61.948,-14.178,1009.7,11.65,-999.0,yes,yes,no,300234066214700,BD2VHI,AOML,UNKNOWN,North
2021-07-07T12:00:00Z,1625659200,2021,12,0,188.5,188.5,61.952,-14.171,1010.6,11.62,-999.0,yes,yes,no,300234066214700,BD2VHI,AOML,UNKNOWN,North
2021-07-07T15:00:00Z,1625670000,2021,15,0,188.625,188.625,61.948,-14.173,1011.4,11.85,-999.0,yes,yes,no,300234066214700,BD2VHI,AOML,UNKNOWN,North
2021-07-07T18:00:00Z,1625680800,2021,18,0,188.75,188.75,61.951,-14.163,1011.7,11.91,-999.0,yes,yes,no,300234066214700,BD2VHI,AOML,UNKNOWN,North
2021-07-07T21:00:00Z,1625691600,2021,21,0,188.875,188.875,61.956,-14.132,1012.9,11.88,-999.0,yes,yes,no,300234066214700,BD2VHI,AOML,UNKNOWN,North
2021-07-08T00:00:00Z,1625702400,2021,0,0,189.0,189.0,61.948,-14.11,1013.7,11.84,-999.0,yes,yes,no,300234066214700,BD2VHI,AOML,UNKNOWN,North
2021-07-08T03:00:00Z,1625713200,2021,3,0,189.125,189.125,61.938,-14.111,1014.0,11.9,-999.0,yes,yes,no,300234066214700,BD2VHI,AOML,UNKNOWN,North
2021-07-08T06:00:00Z,1625724000,2021,6,0,189.25,189.25,61.934,-14.099,1014.6,11.82,-999.0,yes,yes,no,300234066214700,BD2VHI,AOML,UNKNOWN,North
2021-07-08T09:00:00Z,1625734800,2021,9,0,189.375,189.375,61.939,-14.058,1015.8,11.68,-999.0,yes,yes,no,300234066214700,BD2VHI,AOML,UNKNOWN,North
2021-07-08T12:00:00Z,1625745600,2021,12,0,189.5,189.5,61.943,-14.036,1016.5,11.68,-999.0,yes,yes,no,300234066214700,BD2VHI,AOML,UNKNOWN,North
2021-07-08T15:00:00Z,1625756400,2021,15,0,189.625,189.625,61.942,-14.021,1017.0,11.79,-999.0,yes,yes,no,300234066214700,BD2VHI,AOML,UNKNOWN,North
2021-07-08T18:00:00Z,1625767200,2021,18,0,189.75,189.75,61.938,-14.01,1017.4,11.93,-999.0,yes,yes,no,300234066214700,BD2VHI,AOML,UNKNOWN,North
2021-07-08T21:00:00Z,1625778000,2021,21,0,189.875,189.875,61.947,-13.995,1018.6,11.95,-999.0,yes,yes,no,300234066214700,BD2VHI,AOML,UNKNOWN,North
2021-07-09T00:00:00Z,1625788800,2021,0,0,190.0,190.0,61.962,-13.976,1019.3,11.94,-999.0,yes,yes,no,300234066214700,BD2VHI,AOML,UNKNOWN,North
2021-07-09T03:00:00Z,1625799600,2021,3,0,190.125,190.125,61.975,-13.956,1019.2,11.89,-999.0,yes,yes,no,300234066214700,BD2VHI,AOML,UNKNOWN,North
2021-07-09T06:00:00Z,1625810400,2021,6,0,190.25,190.25,61.974,-13.936,1019.3,11.82,-999.0,yes,yes,no,300234066214700,BD2VHI,AOML,UNKNOWN,North
2021-07-09T09:00:00Z,1625821200,2021,9,0,190.375,190.375,61.981,-13.945,1019.7,11.8,-999.0,yes,yes,no,300234066214700,BD2VHI,AOML,UNKNOWN,North
2021-07-09T12:00:00Z,1625832000,2021,12,0,190.5,190.5,62.002,-13.945,1019.8,11.78,-999.0,yes,yes,no,300234066214700,BD2VHI,AOML,UNKNOWN,North
2021-07-09T15:00:00Z,1625842800,2021,15,0,190.625,190.625,62.012,-13.95,1019.5,11.73,-999.0,yes,yes,no,300234066214700,BD2VHI,AOML,UNKNOWN,North
2021-07-09T18:00:00Z,1625853600,2021,18,0,190.75,190.75,62.018,-13.965,1019.0,11.79,-999.0,yes,yes,no,300234066214700,BD2VHI,AOML,UNKNOWN,North
2021-07-09T21:00:00Z,1625864400,2021,21,0,190.875,190.875,62.032,-13.982,1019.0,11.81,-999.0,yes,yes,no,300234066214700,BD2VHI,AOML,UNKNOWN,North
2021-07-10T00:00:00Z,1625875200,2021,0,0,191.0,191.0,62.048,-13.993,1019.0,11.81,-999.0,yes,yes,no,300234066214700,BD2VHI,AOML,UNKNOWN,North
2021-07-10T03:00:00Z,1625886000,2021,3,0,191.125,191.125,62.061,-14.017,1017.9,11.82,-999.0,yes,yes,no,300234066214700,BD2VHI,AOML,UNKNOWN,North
2021-07-10T06:00:00Z,1625896800,2021,6,0,191.25,191.25,62.074,-14.04,1017.6,11.82,-999.0,yes,yes,no,300234066214700,BD2VHI,AOML,UNKNOWN,North
2021-07-10T09:00:00Z,1625907600,2021,9,0,191.375,191.375,62.084,-14.05,1017.6,11.86,-999.0,yes,yes,no,300234066214700,BD2VHI,AOML,UNKNOWN,North
2021-07-10T12:00:00Z,1625918400,2021,12,0,191.5,191.5,62.097,-14.092,1017.8,11.89,-999.0,yes,yes,no,300234066214700,BD2VHI,AOML,UNKNOWN,North
2021-07-10T15:00:00Z,1625929200,2021,15,0,191.625,191.625,62.12,-14.147,1017.3,11.93,-999.0,yes,yes,no,300234066214700,BD2VHI,AOML,UNKNOWN,North
2021-07-10T18:00:00Z,1625940000,2021,18,0,191.75,191.75,62.142,-14.177,1016.6,11.95,-999.0,yes,yes,no,300234066214700,BD2VHI,AOML,UNKNOWN,North
2021-07-10T21:00:00Z,1625950800,2021,21,0,191.875,191.875,62.15,-14.199,1017.3,11.98,-999.0,yes,yes,no,300234066214700,BD2VHI,AOML,UNKNOWN,North
2021-07-11T00:00:00Z,1625961600,2021,0,0,192.0,192.0,62.159,-14.233,1017.2,11.93,-999.0,yes,yes,no,300234066214700,BD2VHI,AOML,UNKNOWN,North
2021-07-11T03:00:00Z,1625972400,2021,3,0,192.125,192.125,62.166,-14.29,1016.8,11.94,-999.0,yes,yes,no,300234066214700,BD2VHI,AOML,UNKNOWN,North
2021-07-11T06:00:00Z,1625983200,2021,6,0,192.25,192.25,62.18,-14.332,1016.7,11.96,-999.0,yes,yes,no,300234066214700,BD2VHI,AOML,UNKNOWN,North
2021-07-11T09:00:00Z,1625994000,2021,9,0,192.375,192.375,62.186,-14.35,1017.0,11.97,-999.0,yes,yes,no,300234066214700,BD2VHI,AOML,UNKNOWN,North
2021-07-11T12:00:00Z,1626004800,2021,12,0,192.5,192.5,62.193,-14.376,1017.4,12.09,-999.0,yes,yes,no,300234066214700,BD2VHI,AOML,UNKNOWN,North
2021-07-11T15:00:00Z,1626015600,2021,15,0,192.625,192.625,62.202,-14.424,1017.3,12.37,-999.0,yes,yes,no,300234066214700,BD2VHI,AOML,UNKNOWN,North
2021-07-11T18:00:00Z,1626026400,2021,18,0,192.75,192.75,62.209,-14.462,1016.6,12.82,-999.0,yes,yes,no,300234066214700,BD2VHI,AOML,UNKNOWN,North
2021-07-11T21:00:00Z,1626037200,2021,21,0,192.875,192.875,62.226,-14.465,1016.4,12.58,-999.0,yes,yes,no,300234066214700,BD2VHI,AOML,UNKNOWN,North
2021-07-12T00:00:00Z,1626048000,2021,0,0,193.0,193.0,62.244,-14.441,1016.2,12.38,-999.0,yes,yes,no,300234066214700,BD2VHI,AOML,UNKNOWN,North
2021-07-12T03:00:00Z,1626058800,2021,3,0,193.125,193.125,62.252,-14.437,1015.3,12.32,-999.0,yes,yes,no,300234066214700,BD2VHI,AOML,UNKNOWN,North
2021-07-12T06:00:00Z,1626069600,2021,6,0,193.25,193.25,62.259,-14.444,1014.8,12.24,-999.0,yes,yes,no,300234066214700,BD2VHI,AOML,UNKNOWN,North
2021-07-12T09:00:00Z,1626080400,2021,9,0,193.375,193.375,62.28,-14.424,1014.7,12.23,-999.0,yes,yes,no,300234066214700,BD2VHI,AOML,UNKNOWN,North
2021-07-12T12:00:00Z,1626091200,2021,12,0,193.5,193.5,62.302,-14.391,1014.8,12.35,-999.0,yes,yes,no,300234066214700,BD2VHI,AOML,UNKNOWN,North
2021-07-12T15:00:00Z,1626102000,2021,15,0,193.625,193.625,62.32,-14.385,1014.2,12.22,-999.0,yes,yes,no,300234066214700,BD2VHI,AOML,UNKNOWN,North
2021-07-12T18:00:00Z,1626112800,2021,18,0,193.75,193.75,62.342,-14.384,1013.7,12.17,-999.0,yes,yes,no,300234066214700,BD2VHI,AOML,UNKNOWN,North
2021-07-12T21:00:00Z,1626123600,2021,21,0,193.875,193.875,62.359,-14.356,1013.6,12.03,-999.0,yes,yes,no,300234066214700,BD2VHI,AOML,UNKNOWN,North
2021-07-13T00:00:00Z,1626134400,2021,0,0,194.0,194.0,62.379,-14.346,1013.9,12.05,-999.0,yes,yes,no,300234066214700,BD2VHI,AOML,UNKNOWN,North
2021-07-13T03:00:00Z,1626145200,2021,3,0,194.125,194.125,62.397,-14.346,1013.6,12.1,-999.0,yes,yes,no,300234066214700,BD2VHI,AOML,UNKNOWN,North
2021-07-13T06:00:00Z,1626156000,2021,6,0,194.25,194.25,62.414,-14.353,1012.9,12.17,-999.0,yes,yes,no,300234066214700,BD2VHI,AOML,UNKNOWN,North
2021-07-13T09:00:00Z,1626166800,2021,9,0,194.375,194.375,62.415,-14.327,1014.3,12.19,-999.0,yes,yes,no,300234066214700,BD2VHI,AOML,UNKNOWN,North
2021-07-13T12:00:00Z,1626177600,2021,12,0,194.5,194.5,62.422,-14.292,1014.9,12.32,-999.0,yes,yes,no,300234066214700,BD2VHI,AOML,UNKNOWN,North
2021-07-13T15:00:00Z,1626188400,2021,15,0,194.625,194.625,62.426,-14.257,1015.4,12.38,-999.0,yes,yes,no,300234066214700,BD2VHI,AOML,UNKNOWN,North
2021-07-13T18:00:00Z,1626199200,2021,18,0,194.75,194.75,62.43,-14.255,1014.6,12.43,-999.0,yes,yes,no,300234066214700,BD2VHI,AOML,UNKNOWN,North
2021-07-13T21:00:00Z,1626210000,2021,21,0,194.875,194.875,62.442,-14.231,1014.6,12.36,-999.0,yes,yes,no,300234066214700,BD2VHI,AOML,UNKNOWN,North
2021-07-14T00:00:00Z,1626220800,2021,0,0,195.0,195.0,62.462,-14.182,1013.5,12.32,-999.0,yes,yes,no,300234066214700,BD2VHI,AOML,UNKNOWN,North
2021-07-14T03:00:00Z,1626231600,2021,3,0,195.125,195.125,62.476,-14.152,1011.8,12.27,-999.0,yes,yes,no,300234066214700,BD2VHI,AOML,UNKNOWN,North
2021-07-14T06:00:00Z,1626242400,2021,6,0,195.25,195.25,62.49,-14.167,1009.0,12.22,-999.0,yes,yes,no,300234066214700,BD2VHI,AOML,UNKNOWN,North
2021-07-14T09:00:00Z,1626253200,2021,9,0,195.375,195.375,62.518,-14.156,1006.1,12.15,-999.0,yes,yes,no,300234066214700,BD2VHI,AOML,UNKNOWN,North
2021-07-14T12:00:00Z,1626264000,2021,12,0,195.5,195.5,62.534,-14.14,1003.5,12.16,-999.0,yes,yes,no,300234066214700,BD2VHI,AOML,UNKNOWN,North
2021-07-14T15:00:00Z,1626274800,2021,15,0,195.625,195.625,62.54,-14.098,1003.9,12.22,-999.0,yes,yes,no,300234066214700,BD2VHI,AOML,UNKNOWN,North
2021-07-14T18:00:00Z,1626285600,2021,18,0,195.75,195.75,62.54,-14.035,1005.2,12.2,-999.0,yes,yes,no,300234066214700,BD2VHI,AOML,UNKNOWN,North
2021-07-14T21:00:00Z,1626296400,2021,21,0,195.875,195.875,62.536,-13.954,1006.7,12.03,-999.0,yes,yes,no,300234066214700,BD2VHI,AOML,UNKNOWN,North
2021-07-15T00:00:00Z,1626307200,2021,0,0,196.0,196.0,62.53,-13.845,1008.6,11.71,-999.0,yes,yes,no,300234066214700,BD2VHI,AOML,UNKNOWN,North
2021-07-15T03:00:00Z,1626318000,2021,3,0,196.125,196.125,62.52,-13.744,1011.1,11.5,-999.0,yes,yes,no,300234066214700,BD2VHI,AOML,UNKNOWN,North
2021-07-15T06:00:00Z,1626328800,2021,6,0,196.25,196.25,62.511,-13.69,1012.6,11.55,-999.0,yes,yes,no,300234066214700,BD2VHI,AOML,UNKNOWN,North
2021-07-15T09:00:00Z,1626339600,2021,9,0,196.375,196.375,62.513,-13.667,1013.5,11.53,-999.0,yes,yes,no,300234066214700,BD2VHI,AOML,UNKNOWN,North
2021-07-15T12:00:00Z,1626350400,2021,12,0,196.5,196.5,62.533,-13.633,1013.0,11.68,-999.0,yes,yes,no,300234066214700,BD2VHI,AOML,UNKNOWN,North
2021-07-15T15:00:00Z,1626361200,2021,15,0,196.625,196.625,62.552,-13.603,1010.1,11.68,-999.0,yes,yes,no,300234066214700,BD2VHI,AOML,UNKNOWN,North
2021-07-15T18:00:00Z,1626372000,2021,18,0,196.75,196.75,62.567,-13.596,1007.6,11.63,-999.0,yes,yes,no,300234066214700,BD2VHI,AOML,UNKNOWN,North
2021-07-15T21:00:00Z,1626382800,2021,21,0,196.875,196.875,62.581,-13.587,1007.2,11.49,-999.0,yes,yes,no,300234066214700,BD2VHI,AOML,UNKNOWN,North
2021-07-16T00:00:00Z,1626393600,2021,0,0,197.0,197.0,62.612,-13.548,1006.6,11.54,-999.0,yes,yes,no,300234066214700,BD2VHI,AOML,UNKNOWN,North
2021-07-16T03:00:00Z,1626404400,2021,3,0,197.125,197.125,62.643,-13.488,1005.4,11.47,-999.0,yes,yes,no,300234066214700,BD2VHI,AOML,UNKNOWN,North
2021-07-16T06:00:00Z,1626415200,2021,6,0,197.25,197.25,62.669,-13.434,1004.0,11.39,-999.0,yes,yes,no,300234066214700,BD2VHI,AOML,UNKNOWN,North
2021-07-16T09:00:00Z,1626426000,2021,9,0,197.375,197.375,62.686,-13.393,1004.6,11.29,-999.0,yes,yes,no,300234066214700,BD2VHI,AOML,UNKNOWN,North
2021-07-16T12:00:00Z,1626436800,2021,12,0,197.5,197.5,62.701,-13.317,1006.7,11.2,-999.0,yes,yes,no,300234066214700,BD2VHI,AOML,UNKNOWN,North
2021-07-16T15:00:00Z,1626447600,2021,15,0,197.625,197.625,62.718,-13.224,1007.9,11.24,-999.0,yes,yes,no,300234066214700,BD2VHI,AOML,UNKNOWN,North
2021-07-16T18:00:00Z,1626458400,2021,18,0,197.75,197.75,62.734,-13.166,1008.8,11.26,-999.0,yes,yes,no,300234066214700,BD2VHI,AOML,UNKNOWN,North
2021-07-16T21:00:00Z,1626469200,2021,21,0,197.875,197.875,62.748,-13.112,1009.6,11.12,-999.0,yes,yes,no,300234066214700,BD2VHI,AOML,UNKNOWN,North
2021-07-17T00:00:00Z,1626480000,2021,0,0,198.0,198.0,62.761,-13.056,1010.0,10.91,-999.0,yes,yes,no,300234066214700,BD2VHI,AOML,UNKNOWN,North
2021-07-17T03:00:00Z,1626490800,2021,3,0,198.125,198.125,62.779,-12.963,1009.8,10.7,-999.0,yes,yes,no,300234066214700,BD2VHI,AOML,UNKNOWN,North
2021-07-17T06:00:00Z,1626501600,2021,6,0,198.25,198.25,62.767,-12.855,1011.0,10.77,-999.0,yes,yes,no,300234066214700,BD2VHI,AOML,UNKNOWN,North
2021-07-17T09:00:00Z,1626512400,2021,9,0,198.375,198.375,62.742,-12.808,1013.3,10.66,-999.0,yes,yes,no,300234066214700,BD2VHI,AOML,UNKNOWN,North
2021-07-17T12:00:00Z,1626523200,2021,12,0,198.5,198.5,62.735,-12.749,1016.0,10.62,-999.0,yes,yes,no,300234066214700,BD2VHI,AOML,UNKNOWN,North
2021-07-17T15:00:00Z,1626534000,2021,15,0,198.625,198.625,62.73,-12.668,1017.6,10.71,-999.0,yes,yes,no,300234066214700,BD2VHI,AOML,UNKNOWN,North
2021-07-17T18:00:00Z,1626544800,2021,18,0,198.75,198.75,62.722,-12.608,1019.0,10.72,-999.0,yes,yes,no,300234066214700,BD2VHI,AOML,UNKNOWN,North
2021-07-17T21:00:00Z,1626555600,2021,21,0,198.875,198.875,62.715,-12.574,1019.8,10.67,-999.0,yes,yes,no,300234066214700,BD2VHI,AOML,UNKNOWN,North
2021-07-18T00:00:00Z,1626566400,2021,0,0,199.0,199.0,62.724,-12.534,1020.2,10.62,-999.0,yes,yes,no,300234066214700,BD2VHI,AOML,UNKNOWN,North
2021-07-18T03:00:00Z,1626577200,2021,3,0,199.125,199.125,62.737,-12.456,1020.4,10.63,-999.0,yes,yes,no,300234066214700,BD2VHI,AOML,UNKNOWN,North
2021-07-18T06:00:00Z,1626588000,2021,6,0,199.25,199.25,62.737,-12.38,1020.5,10.46,-999.0,yes,yes,no,300234066214700,BD2VHI,AOML,UNKNOWN,North
2021-07-18T09:00:00Z,1626598800,2021,9,0,199.375,199.375,62.724,-12.365,1021.5,10.41,-999.0,yes,yes,no,300234066214700,BD2VHI,AOML,UNKNOWN,North
2021-07-18T12:00:00Z,1626609600,2021,12,0,199.5,199.5,62.726,-12.357,1021.2,10.4,-999.0,yes,yes,no,300234066214700,BD2VHI,AOML,UNKNOWN,North
2021-07-18T15:00:00Z,1626620400,2021,15,0,199.625,199.625,62.733,-12.322,1021.1,10.6,-999.0,yes,yes,no,300234066214700,BD2VHI,AOML,UNKNOWN,North
2021-07-18T18:00:00Z,1626631200,2021,18,0,199.75,199.75,62.738,-12.278,1019.8,10.64,-999.0,yes,yes,no,300234066214700,BD2VHI,AOML,UNKNOWN,North
2021-07-18T21:00:00Z,1626642000,2021,21,0,199.875,199.875,62.73,-12.26,1019.1,10.67,-999.0,yes,yes,no,300234066214700,BD2VHI,AOML,UNKNOWN,North
2021-07-19T00:00:00Z,1626652800,2021,0,0,200.0,200.0,62.731,-12.266,1018.1,10.72,-999.0,yes,yes,no,300234066214700,BD2VHI,AOML,UNKNOWN,North
2021-07-19T03:00:00Z,1626663600,2021,3,0,200.125,200.125,62.746,-12.235,1017.1,11.27,-999.0,yes,yes,no,300234066214700,BD2VHI,AOML,UNKNOWN,North
2021-07-19T06:00:00Z,1626674400,2021,6,0,200.25,200.25,62.752,-12.18,1016.6,11.22,-999.0,yes,yes,no,300234066214700,BD2VHI,AOML,UNKNOWN,North
2021-07-19T09:00:00Z,1626685200,2021,9,0,200.375,200.375,62.749,-12.143,1016.6,11.05,-999.0,yes,yes,no,300234066214700,BD2VHI,AOML,UNKNOWN,North
2021-07-19T12:00:00Z,1626696000,2021,12,0,200.5,200.5,62.736,-12.136,1016.9,11.11,-999.0,yes,yes,no,300234066214700,BD2VHI,AOML,UNKNOWN,North
2021-07-19T15:00:00Z,1626706800,2021,15,0,200.625,200.625,62.727,-12.15,1018.1,11.13,-999.0,yes,yes,no,300234066214700,BD2VHI,AOML,UNKNOWN,North
2021-07-19T18:00:00Z,1626717600,2021,18,0,200.75,200.75,62.737,-12.162,1018.7,11.19,-999.0,yes,yes,no,300234066214700,BD2VHI,AOML,UNKNOWN,North
2021-07-19T21:00:00Z,1626728400,2021,21,0,200.875,200.875,62.748,-12.167,1019.3,11.22,-999.0,yes,yes,no,300234066214700,BD2VHI,AOML,UNKNOWN,North
2021-07-20T00:00:00Z,1626739200,2021,0,0,201.0,201.0,62.749,-12.168,1019.5,11.2,-999.0,yes,yes,no,300234066214700,BD2VHI,AOML,UNKNOWN,North
2021-07-20T03:00:00Z,1626750000,2021,3,0,201.125,201.125,62.748,-12.157,1019.3,11.19,-999.0,yes,yes,no,300234066214700,BD2VHI,AOML,UNKNOWN,North
2021-07-20T06:00:00Z,1626760800,2021,6,0,201.25,201.25,62.755,-12.143,1019.3,11.14,-999.0,yes,yes,no,300234066214700,BD2VHI,AOML,UNKNOWN,North
2021-07-20T09:00:00Z,1626771600,2021,9,0,201.375,201.375,62.763,-12.126,1019.8,11.06,-999.0,yes,yes,no,300234066214700,BD2VHI,AOML,UNKNOWN,North
2021-07-20T12:00:00Z,1626782400,2021,12,0,201.5,201.5,62.761,-12.12,1019.6,10.98,-999.0,yes,yes,no,300234066214700,BD2VHI,AOML,UNKNOWN,North
2021-07-20T15:00:00Z,1626793200,2021,15,0,201.625,201.625,62.754,-12.124,1019.6,10.83,-999.0,yes,yes,no,300234066214700,BD2VHI,AOML,UNKNOWN,North
2021-07-20T18:00:00Z,1626804000,2021,18,0,201.75,201.75,62.763,-12.142,1019.3,10.98,-999.0,yes,yes,no,300234066214700,BD2VHI,AOML,UNKNOWN,North
2021-07-20T21:00:00Z,1626814800,2021,21,0,201.875,201.875,62.782,-12.137,1018.8,11.03,-999.0,yes,yes,no,300234066214700,BD2VHI,AOML,UNKNOWN,North
2021-07-21T00:00:00Z,1626825600,2021,0,0,202.0,202.0,62.78,-12.113,1018.4,11.07,-999.0,yes,yes,no,300234066214700,BD2VHI,AOML,UNKNOWN,North
2021-07-21T03:00:00Z,1626836400,2021,3,0,202.125,202.125,62.772,-12.092,1018.1,10.84,-999.0,yes,yes,no,300234066214700,BD2VHI,AOML,UNKNOWN,North
2021-07-21T06:00:00Z,1626847200,2021,6,0,202.25,202.25,62.77,-12.045,1017.7,10.78,-999.0,yes,yes,no,300234066214700,BD2VHI,AOML,UNKNOWN,North
2021-07-21T09:00:00Z,1626858000,2021,9,0,202.375,202.375,62.759,-11.99,1018.8,10.84,-999.0,yes,yes,no,300234066214700,BD2VHI,AOML,UNKNOWN,North
2021-07-21T12:00:00Z,1626868800,2021,12,0,202.5,202.5,62.739,-11.965,1019.3,10.91,-999.0,yes,yes,no,300234066214700,BD2VHI,AOML,UNKNOWN,North
2021-07-21T15:00:00Z,1626879600,2021,15,0,202.625,202.625,62.726,-11.934,1020.0,10.88,-999.0,yes,yes,no,300234066214700,BD2VHI,AOML,UNKNOWN,North
2021-07-21T18:00:00Z,1626890400,2021,18,0,202.75,202.75,62.727,-11.852,1020.7,10.83,-999.0,yes,yes,no,300234066214700,BD2VHI,AOML,UNKNOWN,North
2021-07-21T21:00:00Z,1626901200,2021,21,0,202.875,202.875,62.737,-11.763,1021.4,10.85,-999.0,yes,yes,no,300234066214700,BD2VHI,AOML,UNKNOWN,North
2021-07-22T00:00:00Z,1626912000,2021,0,0,203.0,203.0,62.751,-11.697,1021.8,10.88,-999.0,yes,yes,no,300234066214700,BD2VHI,AOML,UNKNOWN,North
2021-07-22T03:00:00Z,1626922800,2021,3,0,203.125,203.125,62.774,-11.654,1022.5,10.86,-999.0,yes,yes,no,300234066214700,BD2VHI,AOML,UNKNOWN,North
2021-07-22T06:00:00Z,1626933600,2021,6,0,203.25,203.25,62.816,-11.568,1022.5,10.84,-999.0,yes,yes,no,300234066214700,BD2VHI,AOML,UNKNOWN,North
2021-07-22T09:00:00Z,1626944400,2021,9,0,203.375,203.375,62.849,-11.463,1023.3,10.9,-999.0,yes,yes,no,300234066214700,BD2VHI,AOML,UNKNOWN,North
2021-07-22T12:00:00Z,1626955200,2021,12,0,203.5,203.5,62.853,-11.39,1023.5,11.08,-999.0,yes,yes,no,300234066214700,BD2VHI,AOML,UNKNOWN,North
2021-07-22T15:00:00Z,1626966000,2021,15,0,203.625,203.625,62.846,-11.378,1022.8,11.18,-999.0,yes,yes,no,300234066214700,BD2VHI,AOML,UNKNOWN,North
2021-07-22T18:00:00Z,1626976800,2021,18,0,203.75,203.75,62.867,-11.362,1021.6,11.16,-999.0,yes,yes,no,300234066214700,BD2VHI,AOML,UNKNOWN,North
2021-07-22T21:00:00Z,1626987600,2021,21,0,203.875,203.875,62.912,-11.276,1020.5,11.01,-999.0,yes,yes,no,300234066214700,BD2VHI,AOML,UNKNOWN,North
2021-07-23T00:00:00Z,1626998400,2021,0,0,204.0,204.0,62.918,-11.178,1019.4,10.94,-999.0,yes,yes,no,300234066214700,BD2VHI,AOML,UNKNOWN,North
2021-07-23T03:00:00Z,1627009200,2021,3,0,204.125,204.125,62.897,-11.195,1018.2,10.92,-999.0,yes,yes,no,300234066214700,BD2VHI,AOML,UNKNOWN,North
2021-07-23T06:00:00Z,1627020000,2021,6,0,204.25,204.25,62.913,-11.205,1017.2,10.85,-999.0,yes,yes,no,300234066214700,BD2VHI,AOML,UNKNOWN,North
2021-07-23T09:00:00Z,1627030800,2021,9,0,204.375,204.375,62.936,-11.144,1017.1,10.75,-999.0,yes,yes,no,300234066214700,BD2VHI,AOML,UNKNOWN,North
2021-07-23T12:00:00Z,1627041600,2021,12,0,204.5,204.5,62.925,-11.101,1016.4,10.81,-999.0,yes,yes,no,300234066214700,BD2VHI,AOML,UNKNOWN,North
2021-07-23T15:00:00Z,1627052400,2021,15,0,204.625,204.625,62.9,-11.146,1015.8,10.9,-999.0,yes,yes,no,300234066214700,BD2VHI,AOML,UNKNOWN,North
2021-07-23T18:00:00Z,1627063200,2021,18,0,204.75,204.75,62.907,-11.191,1014.6,10.95,-999.0,yes,yes,no,300234066214700,BD2VHI,AOML,UNKNOWN,North
2021-07-23T21:00:00Z,1627074000,2021,21,0,204.875,204.875,62.932,-11.162,1014.3,10.94,-999.0,yes,yes,no,300234066214700,BD2VHI,AOML,UNKNOWN,North
2021-07-24T00:00:00Z,1627084800,2021,0,0,205.0,205.0,62.936,-11.146,1013.6,10.95,-999.0,yes,yes,no,300234066214700,BD2VHI,AOML,UNKNOWN,North
2021-07-24T03:00:00Z,1627095600,2021,3,0,205.125,205.125,62.925,-11.196,1012.2,10.94,-999.0,yes,yes,no,300234066214700,BD2VHI,AOML,UNKNOWN,North
2021-07-24T06:00:00Z,1627106400,2021,6,0,205.25,205.25,62.933,-11.266,1011.1,10.94,-999.0,yes,yes,no,300234066214700,BD2VHI,AOML,UNKNOWN,North
2021-07-24T09:00:00Z,1627117200,2021,9,0,205.375,205.375,62.968,-11.251,1010.4,11.0,-999.0,yes,yes,no,300234066214700,BD2VHI,AOML,UNKNOWN,North
2021-07-24T12:00:00Z,1627128000,2021,12,0,205.5,205.5,62.976,-11.227,1009.9,11.03,-999.0,yes,yes,no,300234066214700,BD2VHI,AOML,UNKNOWN,North
2021-07-24T15:00:00Z,1627138800,2021,15,0,205.625,205.625,62.961,-11.274,1009.5,11.1,-999.0,yes,yes,no,300234066214700,BD2VHI,AOML,UNKNOWN,North
2021-07-24T18:00:00Z,1627149600,2021,18,0,205.75,205.75,62.962,-11.333,1009.1,11.2,-999.0,yes,yes,no,300234066214700,BD2VHI,AOML,UNKNOWN,North
2021-07-24T21:00:00Z,1627160400,2021,21,0,205.875,205.875,62.998,-11.315,1009.3,11.1,-999.0,yes,yes,no,300234066214700,BD2VHI,AOML,UNKNOWN,North
2021-07-25T00:00:00Z,1627171200,2021,0,0,206.0,206.0,63.014,-11.251,1009.6,11.05,-999.0,yes,yes,no,300234066214700,BD2VHI,AOML,UNKNOWN,North
2021-07-25T03:00:00Z,1627182000,2021,3,0,206.125,206.125,62.995,-11.281,1010.0,10.97,-999.0,yes,yes,no,300234066214700,BD2VHI,AOML,UNKNOWN,North
2021-07-25T06:00:00Z,1627192800,2021,6,0,206.25,206.25,62.988,-11.354,1010.8,10.98,-999.0,yes,yes,no,300234066214700,BD2VHI,AOML,UNKNOWN,North
2021-07-25T09:00:00Z,1627203600,2021,9,0,206.375,206.375,63.015,-11.356,1011.3,11.08,-999.0,yes,yes,no,300234066214700,BD2VHI,AOML,UNKNOWN,North
2021-07-25T12:00:00Z,1627214400,2021,12,0,206.5,206.5,63.043,-11.301,1011.6,11.27,-999.0,yes,yes,no,300234066214700,BD2VHI,AOML,UNKNOWN,North
2021-07-25T15:00:00Z,1627225200,2021,15,0,206.625,206.625,63.04,-11.29,1011.7,11.25,-999.0,yes,yes,no,300234066214700,BD2VHI,AOML,UNKNOWN,North
2021-07-25T18:00:00Z,1627236000,2021,18,0,206.75,206.75,63.032,-11.324,1011.3,11.33,-999.0,yes,yes,no,300234066214700,BD2VHI,AOML,UNKNOWN,North
2021-07-25T21:00:00Z,1627246800,2021,21,0,206.875,206.875,63.053,-11.312,1011.6,11.29,-999.0,yes,yes,no,300234066214700,BD2VHI,AOML,UNKNOWN,North
2021-07-26T00:00:00Z,1627257600,2021,0,0,207.0,207.0,63.078,-11.245,1011.5,11.12,-999.0,yes,yes,no,300234066214700,BD2VHI,AOML,UNKNOWN,North
2021-07-26T03:00:00Z,1627268400,2021,3,0,207.125,207.125,63.076,-11.23,1011.5,11.07,-999.0,yes,yes,no,300234066214700,BD2VHI,AOML,UNKNOWN,North
2021-07-26T06:00:00Z,1627279200,2021,6,0,207.25,207.25,63.064,-11.29,1011.3,11.04,-999.0,yes,yes,no,300234066214700,BD2VHI,AOML,UNKNOWN,North
2021-07-26T09:00:00Z,1627290000,2021,9,0,207.375,207.375,63.096,-11.333,1011.8,11.09,-999.0,yes,yes,no,300234066214700,BD2VHI,AOML,UNKNOWN,North
2021-07-26T12:00:00Z,1627300800,2021,12,0,207.5,207.5,63.142,-11.3,1012.1,11.27,-999.0,yes,yes,no,300234066214700,BD2VHI,AOML,UNKNOWN,North
2021-07-26T15:00:00Z,1627311600,2021,15,0,207.625,207.625,63.153,-11.293,1012.2,11.66,-999.0,yes,yes,no,300234066214700,BD2VHI,AOML,UNKNOWN,North
2021-07-26T18:00:00Z,1627322400,2021,18,0,207.75,207.75,63.15,-11.365,1011.6,11.7,-999.0,yes,yes,no,300234066214700,BD2VHI,AOML,UNKNOWN,North
2021-07-26T21:00:00Z,1627333200,2021,21,0,207.875,207.875,63.178,-11.413,1011.7,11.69,-999.0,yes,yes,no,300234066214700,BD2VHI,AOML,UNKNOWN,North
2021-07-27T00:00:00Z,1627344000,2021,0,0,208.0,208.0,63.217,-11.378,1011.1,11.71,-999.0,yes,yes,no,300234066214700,BD2VHI,AOML,UNKNOWN,North
2021-07-27T03:00:00Z,1627354800,2021,3,0,208.125,208.125,63.206,-11.356,1009.7,11.7,-999.0,yes,yes,no,300234066214700,BD2VHI,AOML,UNKNOWN,North
2021-07-27T06:00:00Z,1627365600,2021,6,0,208.25,208.25,63.167,-11.425,1008.5,11.55,-999.0,yes,yes,no,300234066214700,BD2VHI,AOML,UNKNOWN,North
2021-07-27T09:00:00Z,1627376400,2021,9,0,208.375,208.375,63.164,-11.507,1007.9,11.48,-999.0,yes,yes,no,300234066214700,BD2VHI,AOML,UNKNOWN,North